Location: Newark
(58.8333°N, 23.5833°E)
Time: 14:20:08
(UTC+00:00)

Tiros 1 despin weight - Pass Details

Date: 18 November 2019
Orbit: 594 x 642 km, 48.2° (Epoch: 06 December)

Event Time Altitude Azimuth Distance (km) Brightness Sun altitude
Rises 17:23:43 0° 261° (W) 2,857 ? -25.8°
Maximum altitude 17:28:48 10° 211° (SSW) 1,967 ? -26.5°
Drops below altitude 10° 17:28:48 10° 211° (SSW) 1,967 ? -26.5°
Enters shadow 17:30:27 - 191° (S) 2,084 ? -26.7°
Sets 17:33:55 0° 162° (SSE) 2,883 - -27.1°
